Wind_Speed
15 16 16 16 16 17 17 17 17 17 19 20 22 24 25 26 26 27 28 29 31 33 34 36 38 39 40 42 46 49 49 49 49 54 57 61 65 70 70 71 66 68 63 63 58 55 55
15 15 16 16 17 17 17 18 18 19 21 20 18 18 19 20 22 24 26 28 30 32 33 34 36 37 40 46 48 49 51 52 53 53 55 59 62 65 72 73 78 73 70 71 71 64 62
16 15 14 14 16 16 17 17 18 15 13 16 17 19 21 23 25 27 29 32 33 35 35 37 39 40 42 47 50 51 53 56 57 58 57 59 61 65 66 67 67 81 79 78 75 70 65
19 17 17 16 16 16 16 17 16 16 17 18 21 22 24 25 27 29 32 34 38 41 42 43 43 44 49 51 52 53 56 60 61 60 58 64 65 65 65 67 67 66 83 82 73 70 67
19 18 17 17 17 17 18 19 20 21 22 23 23 24 26 28 31 34 37 39 39 41 43 46 48 51 54 56 59 62 61 61 63 64 64 68 66 67 67 66 68 69 68 70 70 76 76
25 24 22 21 20 19 19 20 21 23 25 26 27 28 30 33 34 35 36 38 40 43 46 48 52 56 59 63 66 70 71 69 72 69 70 72 72 68 68 69 68 66 68 70 71 67 74
28 28 28 26 25 24 23 22 23 23 23 25 28 30 30 31 32 34 36 37 39 44 49 52 57 61 67 71 75 78 77 77 77 77 77 74 77 69 65 67 66 68 68 67 66 67 65
28 30 29 28 28 28 27 25 25 25 26 27 28 30 31 32 33 35 37 39 41 44 50 55 61 71 76 76 71 60 58 68 68 72 76 76 76 71 72 72 70 68 68 67 64 62 61
29 29 28 29 31 29 27 26 26 27 28 29 29 28 31 31 34 38 39 40 44 48 51 57 67 65 56 50 42 36 34 36 37 44 64 68 70 74 77 76 73 72 69 65 64 62 57
29 29 30 30 31 31 27 25 28 30 30 30 30 29 31 33 36 38 39 42 46 50 52 59 55 53 39 32 30 24 18 23 26 22 32 44 56 70 78 77 75 75 70 66 64 60 58
28 29 30 32 34 32 28 27 30 32 32 29 29 32 33 33 35 37 40 43 47 50 57 53 50 35 27 27 26 26 25 23 18 24 23 30 39 58 68 74 75 73 70 67 65 60 58
27 29 31 33 35 34 30 29 32 33 34 34 34 34 35 37 37 38 39 42 45 47 47 43 40 28 28 29 25 25 27 24 21 23 26 22 31 41 50 62 64 67 67 64 63 60 64
28 30 30 31 34 35 35 33 32 32 36 36 37 37 37 37 39 38 39 41 43 44 46 39 35 27 25 23 22 20 23 20 19 13 20 20 36 34 31 45 58 63 65 61 59 63 53
29 30 31 32 32 34 35 36 35 34 35 37 37 38 38 38 39 38 37 40 40 43 39 29 34 26 26 26 21 21 19 13 15 12 12 23 18 34 33 32 42 53 60 60 64 59 48
29 31 33 34 34 33 35 37 38 36 36 37 38 38 38 40 40 39 37 39 39 41 37 29 27 23 21 23 24 18 20 12 12 16 9 6 8 18 28 29 31 46 51 46 50 56 54
27 32 34 36 35 35 34 34 38 39 38 38 39 38 38 39 39 38 36 37 39 41 35 28 30 25 23 17 18 17 12 13 11 13 12 7 9 9 17 22 21 37 45 47 50 50 53
28 31 34 36 37 37 38 37 37 40 42 41 42 41 39 38 37 37 36 34 35 41 40 29 24 26 24 21 16 17 11 11 12 12 6 8 7 10 16 23 28 26 42 48 48 49 49
29 31 32 34 37 39 40 40 39 39 40 43 42 42 41 38 38 36 36 37 34 36 38 28 24 23 22 20 16 17 13 14 11 13 12 11 12 8 8 24 26 35 33 45 51 50 50
32 32 33 33 35 38 41 42 41 41 40 40 41 43 42 40 40 38 33 35 34 38 36 25 24 22 23 16 20 17 14 14 12 13 14 14 14 12 14 19 28 30 39 43 50 54 54
31 33 33 35 36 39 40 41 42 41 42 42 41 42 42 41 42 42 37 33 32 35 34 27 23 22 21 13 20 16 16 11 16 18 18 19 13 13 15 19 28 32 37 45 54 56 57
33 34 35 36 38 41 41 42 41 41 41 43 42 41 42 41 40 43 39 36 32 31 29 25 18 17 17 16 18 13 16 18 18 18 22 24 17 16 20 19 22 31 36 45 54 58 59
35 35 33 35 39 41 41 41 39 41 41 40 40 39 39 40 39 41 39 35 32 31 30 24 18 15 17 20 18 16 19 17 12 17 21 24 20 18 20 22 18 27 36 42 54 58 57
39 39 40 40 40 40 39 40 40 38 42 40 36 36 37 39 38 38 39 36 35 34 28 25 14 11 17 20 21 21 20 19 17 13 11 18 22 23 23 22 22 22 24 41 51 58 60
43 43 42 41 38 39 41 41 42 37 38 40 35 34 35 37 36 37 37 33 34 36 30 24 15 10 15 20 20 24 23 17 11 12 10 10 16 19 20 23 23 13 22 33 55 61 61
42 41 43 44 40 39 41 40 40 35 35 39 37 35 34 36 34 35 37 30 30 34 35 19 11 10 13 13 15 23 20 15 11 8 15 10 15 16 17 21 13 11 13 22 49 60 61
45 44 43 43 41 41 39 35 35 33 34 36 39 34 31 36 34 33 34 30 27 28 24 11 10 10 14 13 19 22 24 22 19 11 4 1 4 8 12 15 7 5 12 19 34 51 59
42 44 43 42 42 39 36 34 33 31 33 33 37 33 28 30 32 31 32 29 24 25 19 10 10 12 15 20 21 21 17 19 21 10 7 3 5 6 9 8 3 9 10 17 36 47 58
45 45 42 42 41 40 38 36 32 31 32 33 34 34 29 28 29 29 30 27 20 20 17 7 7 8 12 20 23 21 18 18 18 12 8 7 2 7 7 13 11 3 5 21 29 49 57
39 39 39 38 39 38 37 35 34 32 32 33 34 34 26 26 29 24 27 26 16 16 13 6 6 7 8 14 19 24 18 18 17 14 13 10 10 10 10 17 11 6 9 8 29 34 47
Wind_Direction
319 312 306 302 299 298 298 297 296 294 293 290 288 287 285 283 282 280 277 275 273 272 271 272 272 270 268 263 259 259 255 253 250 250 247 244 246 248 245 239 242 238 238 236 233 239 247
321 312 302 296 292 288 286 286 287 287 287 289 291 292 291 288 287 286 285 282 280 278 276 273 271 272 272 269 267 263 259 255 252 249 248 249 249 246 244 247 240 242 245 247 246 244 250
338 328 319 306 296 290 288 286 286 280 282 285 286 287 287 287 287 289 290 289 288 286 284 282 279 276 271 270 268 267 265 262 257 252 248 247 247 248 248 247 248 239 241 244 247 248 251
350 344 336 327 319 310 301 298 294 294 292 292 294 295 295 295 293 293 293 292 291 288 286 283 281 277 272 270 268 265 263 263 260 257 251 249 245 244 247 249 250 247 240 245 248 248 250
2 357 352 347 340 331 324 319 314 309 307 306 303 301 300 298 297 295 293 291 289 286 286 285 283 280 276 273 268 262 257 257 259 258 254 249 246 245 244 244 246 247 246 246 250 247 250
12 8 3 355 345 337 330 323 318 314 311 308 305 303 301 300 301 301 299 297 296 295 293 292 289 286 281 278 275 269 262 257 254 253 254 253 248 243 243 244 246 250 250 248 248 247 246
17 13 8 360 350 340 330 323 318 316 314 311 309 307 306 303 303 301 300 300 302 302 298 297 297 294 290 287 283 280 272 263 257 252 254 247 247 246 245 244 243 244 246 246 247 249 249
16 10 3 357 354 349 342 333 326 322 319 315 313 312 311 310 309 307 308 307 305 304 307 307 306 306 305 302 293 288 283 274 267 255 249 244 245 243 240 238 239 240 242 243 244 247 250
7 3 358 359 357 352 345 340 335 328 323 319 317 318 316 317 318 316 314 311 312 311 315 315 317 316 310 302 296 294 298 293 276 259 239 236 236 234 234 234 234 236 239 240 242 244 247
8 3 1 359 357 354 346 345 342 335 332 329 326 327 326 324 322 317 316 316 317 318 321 325 321 317 310 297 290 300 299 315 284 266 253 243 229 227 228 227 230 232 234 237 241 241 242
5 2 3 1 358 357 354 349 347 343 345 341 335 330 328 326 323 321 320 321 324 325 329 325 323 316 316 307 292 294 298 311 293 247 268 250 235 229 225 225 224 228 230 232 236 238 240
4 0 3 3 359 359 358 353 350 346 347 347 340 333 329 330 329 327 325 327 328 331 330 324 327 317 304 310 288 290 300 306 299 246 256 259 243 229 228 222 225 223 225 228 231 234 236
1 359 1 0 360 358 357 356 353 347 345 347 345 342 339 334 332 330 329 329 331 334 332 325 328 315 309 311 296 276 290 297 307 247 265 268 232 232 227 224 220 220 222 224 227 230 230
353 354 358 358 358 357 356 355 355 352 346 346 345 343 340 336 335 332 330 332 333 333 330 321 326 324 317 306 312 279 278 296 294 257 261 270 263 230 231 225 220 221 220 223 228 229 225
345 347 351 354 356 357 354 351 350 348 346 344 345 346 344 339 336 332 331 335 334 335 333 319 324 326 323 307 308 314 271 288 291 292 271 313 226 218 228 227 224 214 218 216 223 225 222
336 338 341 343 347 351 353 350 347 346 345 344 344 346 346 342 338 332 331 336 335 337 335 322 322 331 334 328 304 319 290 281 286 288 291 276 230 211 207 222 213 218 213 209 215 219 222
328 332 332 336 339 342 347 350 350 347 345 345 344 345 346 344 341 335 332 338 339 339 336 327 322 325 327 328 321 316 283 264 269 279 275 264 234 247 235 212 219 222 215 213 212 214 216
323 326 329 334 338 339 339 342 348 348 345 344 343 341 344 345 343 340 333 340 343 342 335 330 326 325 326 325 327 320 304 269 266 277 272 258 257 244 249 233 233 215 212 215 210 208 210
319 324 327 331 334 335 337 336 340 345 345 342 341 341 343 344 342 344 338 339 342 344 345 334 324 315 326 318 322 322 315 287 267 267 268 267 255 254 258 247 234 235 220 215 208 206 204
314 317 321 325 328 330 332 332 333 339 342 341 341 340 342 344 342 343 342 342 343 345 343 342 331 331 331 340 329 338 327 300 285 268 258 244 254 269 240 239 227 233 234 220 209 203 202
319 313 314 318 325 329 330 330 329 331 338 341 339 341 340 344 343 341 342 340 347 345 349 343 339 337 350 348 332 320 310 292 272 266 254 243 251 256 244 244 249 232 231 225 211 204 204
319 318 316 315 320 323 324 327 325 326 331 339 338 337 338 343 345 341 341 338 344 344 346 347 337 343 348 347 345 340 316 329 325 265 255 246 242 259 249 247 266 245 235 227 213 203 202
322 316 314 314 315 317 321 325 326 323 325 334 340 335 336 341 343 341 342 339 342 345 342 349 351 355 347 344 344 343 338 330 313 304 288 248 251 250 242 250 266 243 239 228 218 206 203
318 323 319 317 315 316 318 317 322 321 323 328 339 336 333 336 345 342 344 342 343 340 349 353 0 4 349 348 343 346 345 354 300 267 241 240 241 249 255 258 253 226 228 233 214 205 207
320 318 317 320 317 316 315 313 315 316 321 324 334 338 333 334 346 344 344 344 347 345 346 6 18 14 357 355 5 1 354 2 352 340 286 249 244 256 263 254 248 262 218 228 219 206 203
319 320 316 315 318 318 317 316 315 312 317 321 328 337 335 331 344 346 345 347 351 353 344 29 49 37 25 13 4 1 1 7 18 31 321 170 252 242 229 257 290 258 239 217 219 210 206
325 323 322 319 320 320 319 318 314 311 314 318 322 334 335 330 338 343 345 350 353 1 18 49 67 42 42 29 25 13 13 14 17 16 34 299 209 191 241 261 215 231 266 206 210 199 200
324 323 323 323 324 321 319 318 315 310 312 315 320 329 333 329 335 343 343 349 353 7 23 59 65 43 34 31 30 27 23 25 34 30 17 11 0 304 317 320 342 331 253 205 197 196 198
325 326 325 329 327 325 322 318 313 309 312 312 316 322 328 329 330 342 340 348 348 2 25 39 37 30 354 25 17 21 22 24 34 32 42 37 37 17 14 357 323 272 188 191 187 191 189
Height
5765 5763 5761 5760 5758 5757 5756 5754 5753 5752 5752 5751 5749 5748 5747 5745 5744 5743 5742 5741 5739 5739 5739 5738 5737 5738 5738 5739 5734 5734 5738 5741 5743 5744 5746 5749 5750 5754 5756 5764 5767 5770 5779 5781 5788 5791 5794
5764 5762 5759 5757 5755 5754 5753 5751 5750 5748 5747 5745 5744 5743 5741 5740 5738 5737 5736 5734 5733 5732 5731 5731 5729 5728 5728 5722 5723 5725 5726 5728 5730 5733 5735 5736 5738 5740 5743 5748 5753 5763 5765 5766 5770 5780 5782
5763 5760 5758 5755 5754 5752 5750 5749 5747 5744 5743 5741 5739 5737 5735 5733 5731 5729 5727 5725 5723 5722 5720 5719 5718 5718 5716 5713 5712 5713 5713 5714 5716 5720 5723 5724 5723 5725 5731 5735 5740 5746 5749 5751 5758 5765 5772
5761 5759 5756 5753 5751 5749 5747 5745 5743 5741 5739 5737 5734 5732 5729 5727 5724 5722 5719 5716 5713 5711 5709 5707 5706 5705 5701 5701 5700 5700 5700 5697 5698 5702 5710 5708 5709 5712 5717 5722 5725 5729 5735 5738 5751 5754 5760
5761 5758 5754 5752 5749 5747 5745 5742 5740 5737 5734 5732 5729 5726 5724 5721 5718 5715 5711 5708 5704 5701 5698 5694 5692 5689 5686 5684 5683 5682 5683 5682 5683 5685 5689 5687 5694 5699 5703 5708 5710 5714 5722 5729 5736 5743 5743
5760 5756 5753 5750 5747 5744 5741 5738 5734 5731 5728 5726 5723 5720 5717 5713 5709 5706 5702 5698 5693 5689 5685 5681 5676 5675 5668 5663 5659 5655 5657 5664 5663 5666 5668 5668 5674 5682 5689 5691 5700 5708 5712 5714 5718 5726 5730
5760 5757 5753 5749 5745 5741 5738 5734 5730 5727 5724 5721 5717 5712 5709 5705 5701 5696 5693 5689 5686 5679 5671 5665 5658 5651 5643 5640 5634 5625 5629 5634 5638 5644 5644 5646 5650 5669 5683 5679 5685 5689 5693 5698 5704 5711 5722
5761 5757 5753 5748 5743 5739 5734 5730 5727 5723 5719 5715 5711 5706 5702 5697 5692 5687 5682 5677 5672 5667 5659 5650 5642 5631 5620 5613 5607 5602 5602 5603 5604 5614 5618 5621 5635 5653 5656 5659 5667 5672 5677 5685 5693 5701 5709
5761 5757 5752 5747 5742 5737 5732 5727 5723 5719 5715 5710 5705 5701 5695 5690 5684 5678 5673 5667 5660 5653 5647 5637 5627 5615 5606 5599 5591 5593 5592 5587 5584 5585 5591 5596 5617 5625 5629 5637 5649 5656 5662 5673 5682 5689 5701
5761 5756 5751 5746 5741 5735 5730 5725 5721 5715 5710 5705 5699 5695 5689 5684 5679 5671 5665 5658 5651 5643 5636 5627 5614 5604 5597 5591 5588 5586 5585 5581 5574 5575 5578 5581 5595 5600 5606 5616 5629 5637 5650 5661 5668 5680 5688
5761 5756 5751 5745 5739 5733 5728 5723 5717 5711 5706 5701 5696 5689 5684 5679 5673 5666 5659 5651 5643 5634 5625 5617 5607 5597 5590 5587 5584 5581 5579 5577 5573 5572 5572 5576 5584 5586 5589 5602 5609 5627 5636 5650 5655 5666 5675
5760 5755 5750 5744 5738 5732 5727 5721 5715 5709 5703 5697 5691 5685 5679 5672 5665 5660 5652 5644 5636 5629 5619 5609 5599 5592 5588 5582 5578 5577 5574 5572 5570 5568 5568 5571 5575 5574 5578 5588 5597 5613 5622 5634 5643 5654 5655
5759 5755 5749 5743 5737 5730 5724 5719 5714 5707 5700 5695 5687 5680 5673 5666 5660 5653 5646 5639 5631 5621 5612 5603 5596 5589 5583 5579 5574 5571 5570 5569 5567 5564 5565 5563 5566 5571 5574 5580 5589 5598 5609 5621 5632 5636 5658
5758 5753 5747 5742 5736 5729 5722 5717 5712 5706 5698 5692 5685 5677 5669 5661 5654 5647 5641 5633 5625 5615 5605 5599 5590 5584 5579 5575 5572 5569 5566 5565 5565 5563 5563 5561 5562 5567 5572 5576 5585 5591 5600 5611 5621 5635 5657
5756 5751 5746 5740 5735 5729 5722 5714 5708 5703 5697 5689 5682 5674 5665 5657 5649 5641 5635 5627 5619 5610 5600 5593 5589 5582 5578 5572 5567 5566 5563 5563 5563 5562 5562 5561 5560 5564 5568 5573 5579 5583 5591 5608 5612 5626 5643
5754 5749 5744 5738 5733 5727 5722 5715 5706 5699 5692 5686 5679 5672 5663 5653 5645 5636 5630 5622 5613 5604 5595 5588 5582 5578 5573 5569 5566 5563 5561 5560 5560 5560 5560 5561 5563 5563 5566 5570 5575 5579 5588 5594 5602 5619 5634
5751 5746 5741 5735 5729 5723 5718 5712 5705 5696 5687 5681 5674 5666 5659 5650 5641 5632 5625 5618 5609 5598 5590 5585 5579 5574 5570 5566 5563 5561 5560 5559 5557 5558 5558 5559 5561 5564 5565 5569 5571 5574 5578 5586 5598 5612 5627
5748 5743 5738 5732 5726 5719 5713 5707 5703 5695 5687 5677 5669 5662 5655 5647 5639 5629 5620 5612 5606 5596 5585 5579 5575 5571 5567 5564 5562 5559 5557 5555 5555 5555 5556 5556 5558 5560 5561 5561 5563 5567 5572 5579 5589 5605 5619
5744 5739 5733 5728 5722 5716 5709 5702 5696 5691 5683 5676 5666 5657 5650 5642 5634 5626 5617 5609 5602 5593 5585 5578 5572 5568 5565 5561 5558 5556 5555 5553 5552 5552 5552 5553 5554 5555 5555 5558 5559 5562 5568 5571 5582 5594 5609
5739 5734 5729 5723 5717 5711 5705 5698 5690 5685 5679 5671 5663 5654 5646 5638 5628 5621 5613 5607 5599 5591 5581 5574 5570 5565 5562 5559 5555 5552 5550 5549 5547 5546 5547 5547 5549 5549 5551 5551 5553 5556 5560 5566 5572 5586 5599
5733 5728 5723 5718 5712 5707 5700 5694 5686 5679 5674 5668 5658 5651 5641 5634 5626 5617 5610 5602 5598 5591 5583 5574 5570 5564 5561 5558 5553 5549 5546 5543 5542 5540 5541 5541 5542 5544 5545 5546 5547 5548 5552 5558 5564 5578 5589
5729 5723 5717 5712 5707 5701 5695 5688 5682 5674 5669 5664 5655 5647 5638 5632 5623 5615 5607 5600 5594 5588 5580 5574 5568 5563 5559 5555 5551 5547 5543 5539 5535 5535 5535 5536 5538 5539 5541 5542 5541 5543 5547 5553 5560 5571 5584
5724 5718 5712 5706 5700 5694 5688 5682 5676 5670 5663 5659 5652 5644 5635 5629 5621 5613 5605 5597 5590 5585 5579 5570 5565 5562 5559 5554 5550 5546 5542 5538 5536 5533 5531 5532 5534 5535 5536 5537 5536 5538 5543 5544 5552 5562 5574
5718 5711 5705 5699 5693 5687 5682 5676 5670 5664 5659 5653 5649 5641 5633 5625 5619 5610 5603 5595 5588 5581 5575 5567 5562 5560 5559 5554 5550 5545 5540 5535 5531 5529 5528 5529 5531 5531 5533 5533 5531 5534 5535 5539 5544 5554 5563
5710 5704 5698 5692 5686 5680 5674 5668 5663 5658 5653 5647 5644 5637 5629 5621 5617 5608 5600 5594 5588 5579 5571 5564 5563 5562 5559 5556 5553 5548 5541 5536 5531 5528 5526 5526 5528 5529 5529 5529 5531 5531 5531 5534 5538 5551 5560
5702 5697 5690 5684 5678 5672 5666 5661 5656 5652 5647 5642 5637 5633 5626 5618 5614 5607 5600 5593 5587 5580 5572 5568 5565 5564 5561 5558 5553 5548 5542 5537 5533 5530 5527 5527 5528 5529 5528 5528 5527 5527 5527 5529 5532 5546 5556
5696 5690 5684 5678 5671 5665 5659 5654 5650 5645 5641 5638 5632 5628 5623 5616 5611 5605 5599 5593 5587 5580 5574 5570 5568 5565 5563 5560 5556 5551 5545 5540 5535 5531 5529 5528 5527 5527 5525 5525 5525 5524 5524 5525 5532 5550 5557
5690 5683 5677 5671 5665 5659 5654 5648 5644 5640 5636 5632 5628 5623 5619 5614 5608 5603 5597 5592 5587 5581 5576 5573 5571 5569 5566 5563 5559 5552 5547 5542 5538 5534 5532 5531 5530 5528 5527 5524 5523 5522 5522 5524 5534 5544 5556
5682 5677 5672 5666 5660 5654 5648 5644 5639 5634 5631 5627 5623 5618 5614 5609 5604 5602 5596 5591 5587 5582 5578 5576 5573 5570 5567 5565 5561 5556 5550 5546 5541 5539 5537 5535 5533 5532 5530 5528 5524 5522 5522 5527 5532 5544 5560